Location: Étouvelles
(49.5207°N, 3.5808°E)
Time: 06:24:32
(UTC+00:00)

COSMOS 2428 - Pass Details

Date: 03 February 2023
Orbit: 843 x 858 km, 70.9° (Epoch: 30 March)

Event Time Altitude Azimuth Distance (km) Brightness Sun altitude
Rises 18:27:40 0° 163° (SSE) 3,390 5.7 -16.9°
Reaches altitude 10° 18:30:39 10° 147° (SSE) 2,459 4.9 -17.4°
Enters shadow 18:32:18 16° 133° (SE) 2,066 4.3 -17.7°
